iso_date,epoch_date,Year,Hour,Min,DOY,POS_DOY,Lat,Lon,BP,Ts,Ta,has_bp,has_ts,has_ta,BuoyID,Buoy_Type,Buoy_Owner,Logistics,Hemisphere
2021-03-06T21:49:58Z,1615067398,2021,21,50,65.9097,65.9097,71.19301,-144.99023,-999.00,-999.00,-999.0,no,no,no,300534061093040,unknown,unknown,unknown,North
2021-03-06T22:00:02Z,1615068003,2021,22,0,65.9167,65.9167,71.19319,-144.99354,-999.00,-999.00,-999.0,no,no,no,300534061093040,unknown,unknown,unknown,North
2021-03-06T22:09:59Z,1615068599,2021,22,10,65.9236,65.9236,71.19521,-144.98521,-999.00,-999.00,-999.0,no,no,no,300534061093040,unknown,unknown,unknown,North
2021-03-06T22:20:03Z,1615069204,2021,22,20,65.9306,65.9306,71.25301,-144.77131,-999.00,-999.00,-999.0,no,no,no,300534061093040,unknown,unknown,unknown,North
2021-03-06T22:30:00Z,1615069800,2021,22,30,65.9375,65.9375,71.10876,-144.923,-999.00,-999.00,-999.0,no,no,no,300534061093040,unknown,unknown,unknown,North
2021-03-06T22:39:56Z,1615070396,2021,22,40,65.9444,65.9444,71.21601,-145.23368,-999.00,-999.00,-999.0,no,no,no,300534061093040,unknown,unknown,unknown,North
2021-03-06T22:50:00Z,1615071001,2021,22,50,65.9514,65.9514,71.23378,-144.87329,-999.00,-999.00,-999.0,no,no,no,300534061093040,unknown,unknown,unknown,North
2021-03-06T22:59:57Z,1615071597,2021,23,0,65.9583,65.9583,71.23304,-144.86664,-999.00,-999.00,-999.0,no,no,no,300534061093040,unknown,unknown,unknown,North
2021-03-06T23:10:01Z,1615072202,2021,23,10,65.9653,65.9653,71.23324,-144.86992,-999.00,-999.00,-999.0,no,no,no,300534061093040,unknown,unknown,unknown,North
2021-03-06T23:19:58Z,1615072798,2021,23,20,65.9722,65.9722,71.23344,-144.8732,-999.00,-999.00,-999.0,no,no,no,300534061093040,unknown,unknown,unknown,North
2021-03-06T23:30:02Z,1615073403,2021,23,30,65.9792,65.9792,71.23363,-144.87647,-999.00,-999.00,-999.0,no,no,no,300534061093040,unknown,unknown,unknown,North
2021-03-06T23:39:59Z,1615073999,2021,23,40,65.9861,65.9861,71.23382,-144.87974,-999.00,-999.00,-999.0,no,no,no,300534061093040,unknown,unknown,unknown,North
2021-03-06T23:50:03Z,1615074604,2021,23,50,65.9931,65.9931,71.23403,-144.88299,-999.00,-999.00,-999.0,no,no,no,300534061093040,unknown,unknown,unknown,North
2021-03-07T00:00:00Z,1615075200,2021,0,0,66.0,66.0,71.23423,-144.88634,-999.00,-999.00,-999.0,no,no,no,300534061093040,unknown,unknown,unknown,North
2021-03-07T00:09:56Z,1615075796,2021,0,10,66.0069,66.0069,71.23441,-144.8894,-999.00,-999.00,-999.0,no,no,no,300534061093040,unknown,unknown,unknown,North
2021-03-07T00:20:00Z,1615076401,2021,0,20,66.0139,66.0139,71.2346,-144.89254,-999.00,-999.00,-999.0,no,no,no,300534061093040,unknown,unknown,unknown,North
2021-03-07T00:29:57Z,1615076997,2021,0,30,66.0208,66.0208,71.23479,-144.89571,-999.00,-999.00,-999.0,no,no,no,300534061093040,unknown,unknown,unknown,North
2021-03-07T00:40:01Z,1615077602,2021,0,40,66.0278,66.0278,71.23496,-144.89886,-999.00,-999.00,-999.0,no,no,no,300534061093040,unknown,unknown,unknown,North
2021-03-07T00:49:58Z,1615078198,2021,0,50,66.0347,66.0347,71.23514,-144.90196,-999.00,-999.00,-999.0,no,no,no,300534061093040,unknown,unknown,unknown,North
2021-03-07T01:00:02Z,1615078803,2021,1,0,66.0417,66.0417,71.23531,-144.90504,-999.00,-999.00,-999.0,no,no,no,300534061093040,unknown,unknown,unknown,North
2021-03-07T01:09:59Z,1615079399,2021,1,10,66.0486,66.0486,71.23548,-144.90811,-999.00,-999.00,-999.0,no,no,no,300534061093040,unknown,unknown,unknown,North
2021-03-07T01:20:03Z,1615080004,2021,1,20,66.0556,66.0556,71.23565,-144.91115,-999.00,-999.00,-999.0,no,no,no,300534061093040,unknown,unknown,unknown,North
2021-03-07T01:30:00Z,1615080600,2021,1,30,66.0625,66.0625,71.23581,-144.91414,-999.00,-999.00,-999.0,no,no,no,300534061093040,unknown,unknown,unknown,North
2021-03-07T01:39:56Z,1615081196,2021,1,40,66.0694,66.0694,71.23599,-144.91712,-999.00,-999.00,-999.0,no,no,no,300534061093040,unknown,unknown,unknown,North
2021-03-07T01:50:00Z,1615081801,2021,1,50,66.0764,66.0764,71.23617,-144.92006,-999.00,-999.00,-999.0,no,no,no,300534061093040,unknown,unknown,unknown,North
2021-03-07T01:59:57Z,1615082397,2021,2,0,66.0833,66.0833,71.23634,-144.92299,-999.00,-999.00,-999.0,no,no,no,300534061093040,unknown,unknown,unknown,North
2021-03-07T02:10:01Z,1615083002,2021,2,10,66.0903,66.0903,71.23651,-144.92593,-999.00,-999.00,-999.0,no,no,no,300534061093040,unknown,unknown,unknown,North
2021-03-07T02:19:58Z,1615083598,2021,2,20,66.0972,66.0972,71.23669,-144.9288,-999.00,-999.00,-999.0,no,no,no,300534061093040,unknown,unknown,unknown,North
2021-03-07T02:30:02Z,1615084203,2021,2,30,66.1042,66.1042,71.23687,-144.93168,-999.00,-999.00,-999.0,no,no,no,300534061093040,unknown,unknown,unknown,North
2021-03-07T02:39:59Z,1615084799,2021,2,40,66.1111,66.1111,71.23704,-144.93454,-999.00,-999.00,-999.0,no,no,no,300534061093040,unknown,unknown,unknown,North
2021-03-07T02:50:03Z,1615085404,2021,2,50,66.1181,66.1181,71.23723,-144.93739,-999.00,-999.00,-999.0,no,no,no,300534061093040,unknown,unknown,unknown,North
2021-03-07T03:00:00Z,1615086000,2021,3,0,66.125,66.125,71.23742,-144.94026,-999.00,-999.00,-999.0,no,no,no,300534061093040,unknown,unknown,unknown,North
2021-03-07T03:09:56Z,1615086596,2021,3,10,66.1319,66.1319,71.23761,-144.94311,-999.00,-999.00,-999.0,no,no,no,300534061093040,unknown,unknown,unknown,North
2021-03-07T03:20:00Z,1615087201,2021,3,20,66.1389,66.1389,71.23781,-144.94597,-999.00,-999.00,-999.0,no,no,no,300534061093040,unknown,unknown,unknown,North
2021-03-07T03:29:57Z,1615087797,2021,3,30,66.1458,66.1458,71.23801,-144.94886,-999.00,-999.00,-999.0,no,no,no,300534061093040,unknown,unknown,unknown,North
2021-03-07T03:40:01Z,1615088402,2021,3,40,66.1528,66.1528,71.2382,-144.95167,-999.00,-999.00,-999.0,no,no,no,300534061093040,unknown,unknown,unknown,North
2021-03-07T03:49:58Z,1615088998,2021,3,50,66.1597,66.1597,71.23839,-144.95433,-999.00,-999.00,-999.0,no,no,no,300534061093040,unknown,unknown,unknown,North
2021-03-07T04:00:02Z,1615089603,2021,4,0,66.1667,66.1667,71.2386,-144.95713,-999.00,-999.00,-999.0,no,no,no,300534061093040,unknown,unknown,unknown,North
2021-03-07T04:09:59Z,1615090199,2021,4,10,66.1736,66.1736,71.23882,-144.95993,-999.00,-999.00,-999.0,no,no,no,300534061093040,unknown,unknown,unknown,North
2021-03-07T04:20:03Z,1615090804,2021,4,20,66.1806,66.1806,71.23904,-144.96275,-999.00,-999.00,-999.0,no,no,no,300534061093040,unknown,unknown,unknown,North
2021-03-07T04:30:00Z,1615091400,2021,4,30,66.1875,66.1875,71.23924,-144.96558,-999.00,-999.00,-999.0,no,no,no,300534061093040,unknown,unknown,unknown,North
2021-03-07T04:39:56Z,1615091996,2021,4,40,66.1944,66.1944,71.23946,-144.96841,-999.00,-999.00,-999.0,no,no,no,300534061093040,unknown,unknown,unknown,North
2021-03-07T04:50:00Z,1615092601,2021,4,50,66.2014,66.2014,71.23968,-144.97122,-999.00,-999.00,-999.0,no,no,no,300534061093040,unknown,unknown,unknown,North
2021-03-07T04:59:57Z,1615093197,2021,5,0,66.2083,66.2083,71.23995,-144.97398,-999.00,-999.00,-999.0,no,no,no,300534061093040,unknown,unknown,unknown,North
2021-03-07T05:10:01Z,1615093802,2021,5,10,66.2153,66.2153,71.2401,-144.97699,-999.00,-999.00,-999.0,no,no,no,300534061093040,unknown,unknown,unknown,North
2021-03-07T05:19:58Z,1615094398,2021,5,20,66.2222,66.2222,71.24031,-144.97968,-999.00,-999.00,-999.0,no,no,no,300534061093040,unknown,unknown,unknown,North
2021-03-07T05:30:02Z,1615095003,2021,5,30,66.2292,66.2292,71.24053,-144.98252,-999.00,-999.00,-999.0,no,no,no,300534061093040,unknown,unknown,unknown,North
2021-03-07T05:39:59Z,1615095599,2021,5,40,66.2361,66.2361,71.24076,-144.98536,-999.00,-999.00,-999.0,no,no,no,300534061093040,unknown,unknown,unknown,North
2021-03-07T05:50:03Z,1615096204,2021,5,50,66.2431,66.2431,71.24099,-144.98821,-999.00,-999.00,-999.0,no,no,no,300534061093040,unknown,unknown,unknown,North
2021-03-07T06:00:00Z,1615096800,2021,6,0,66.25,66.25,71.24123,-144.99107,-999.00,-999.00,-999.0,no,no,no,300534061093040,unknown,unknown,unknown,North
2021-03-07T06:09:56Z,1615097396,2021,6,10,66.2569,66.2569,71.24145,-144.99392,-999.00,-999.00,-999.0,no,no,no,300534061093040,unknown,unknown,unknown,North
2021-03-07T06:20:00Z,1615098001,2021,6,20,66.2639,66.2639,71.24168,-144.99676,-999.00,-999.00,-999.0,no,no,no,300534061093040,unknown,unknown,unknown,North
2021-03-07T06:29:57Z,1615098597,2021,6,30,66.2708,66.2708,71.2419,-144.99954,-999.00,-999.00,-999.0,no,no,no,300534061093040,unknown,unknown,unknown,North
2021-03-07T06:40:01Z,1615099202,2021,6,40,66.2778,66.2778,71.24214,-145.00251,-999.00,-999.00,-999.0,no,no,no,300534061093040,unknown,unknown,unknown,North
2021-03-07T06:49:58Z,1615099798,2021,6,50,66.2847,66.2847,71.24238,-145.00541,-999.00,-999.00,-999.0,no,no,no,300534061093040,unknown,unknown,unknown,North
2021-03-07T07:00:02Z,1615100403,2021,7,0,66.2917,66.2917,71.24261,-145.00829,-999.00,-999.00,-999.0,no,no,no,300534061093040,unknown,unknown,unknown,North
2021-03-07T07:09:59Z,1615100999,2021,7,10,66.2986,66.2986,71.24285,-145.01124,-999.00,-999.00,-999.0,no,no,no,300534061093040,unknown,unknown,unknown,North
2021-03-07T07:20:03Z,1615101604,2021,7,20,66.3056,66.3056,71.24309,-145.01419,-999.00,-999.00,-999.0,no,no,no,300534061093040,unknown,unknown,unknown,North
2021-03-07T07:30:00Z,1615102200,2021,7,30,66.3125,66.3125,71.24334,-145.01719,-999.00,-999.00,-999.0,no,no,no,300534061093040,unknown,unknown,unknown,North
2021-03-07T07:39:56Z,1615102796,2021,7,40,66.3194,66.3194,71.24358,-145.02022,-999.00,-999.00,-999.0,no,no,no,300534061093040,unknown,unknown,unknown,North
2021-03-07T07:50:00Z,1615103401,2021,7,50,66.3264,66.3264,71.24381,-145.0232,-999.00,-999.00,-999.0,no,no,no,300534061093040,unknown,unknown,unknown,North
2021-03-07T07:59:57Z,1615103997,2021,8,0,66.3333,66.3333,71.24404,-145.02633,-999.00,-999.00,-999.0,no,no,no,300534061093040,unknown,unknown,unknown,North
2021-03-07T08:10:01Z,1615104602,2021,8,10,66.3403,66.3403,71.24425,-145.02921,-999.00,-999.00,-999.0,no,no,no,300534061093040,unknown,unknown,unknown,North
2021-03-07T08:19:58Z,1615105198,2021,8,20,66.3472,66.3472,71.24449,-145.03222,-999.00,-999.00,-999.0,no,no,no,300534061093040,unknown,unknown,unknown,North
2021-03-07T08:30:02Z,1615105803,2021,8,30,66.3542,66.3542,71.24474,-145.03526,-999.00,-999.00,-999.0,no,no,no,300534061093040,unknown,unknown,unknown,North
2021-03-07T08:39:59Z,1615106399,2021,8,40,66.3611,66.3611,71.24498,-145.03833,-999.00,-999.00,-999.0,no,no,no,300534061093040,unknown,unknown,unknown,North
2021-03-07T08:50:03Z,1615107004,2021,8,50,66.3681,66.3681,71.24522,-145.0414,-999.00,-999.00,-999.0,no,no,no,300534061093040,unknown,unknown,unknown,North
2021-03-07T09:00:00Z,1615107600,2021,9,0,66.375,66.375,71.24546,-145.04451,-999.00,-999.00,-999.0,no,no,no,300534061093040,unknown,unknown,unknown,North
2021-03-07T09:09:56Z,1615108196,2021,9,10,66.3819,66.3819,71.2457,-145.0476,-999.00,-999.00,-999.0,no,no,no,300534061093040,unknown,unknown,unknown,North
2021-03-07T09:20:00Z,1615108801,2021,9,20,66.3889,66.3889,71.24595,-145.05069,-999.00,-999.00,-999.0,no,no,no,300534061093040,unknown,unknown,unknown,North
2021-03-07T09:29:57Z,1615109397,2021,9,30,66.3958,66.3958,71.24621,-145.05376,-999.00,-999.00,-999.0,no,no,no,300534061093040,unknown,unknown,unknown,North
2021-03-07T09:40:01Z,1615110002,2021,9,40,66.4028,66.4028,71.24646,-145.05686,-999.00,-999.00,-999.0,no,no,no,300534061093040,unknown,unknown,unknown,North
2021-03-07T09:49:58Z,1615110598,2021,9,50,66.4097,66.4097,71.2467,-145.05994,-999.00,-999.00,-999.0,no,no,no,300534061093040,unknown,unknown,unknown,North
2021-03-07T10:00:02Z,1615111203,2021,10,0,66.4167,66.4167,71.24696,-145.06303,-999.00,-999.00,-999.0,no,no,no,300534061093040,unknown,unknown,unknown,North
2021-03-07T10:09:59Z,1615111799,2021,10,10,66.4236,66.4236,71.24721,-145.06607,-999.00,-999.00,-999.0,no,no,no,300534061093040,unknown,unknown,unknown,North
2021-03-07T10:20:03Z,1615112404,2021,10,20,66.4306,66.4306,71.24749,-145.06917,-999.00,-999.00,-999.0,no,no,no,300534061093040,unknown,unknown,unknown,North
2021-03-07T10:30:00Z,1615113000,2021,10,30,66.4375,66.4375,71.24776,-145.07226,-999.00,-999.00,-999.0,no,no,no,300534061093040,unknown,unknown,unknown,North
2021-03-07T10:39:56Z,1615113596,2021,10,40,66.4444,66.4444,71.24801,-145.07545,-999.00,-999.00,-999.0,no,no,no,300534061093040,unknown,unknown,unknown,North
2021-03-07T10:50:00Z,1615114201,2021,10,50,66.4514,66.4514,71.24824,-145.07835,-999.00,-999.00,-999.0,no,no,no,300534061093040,unknown,unknown,unknown,North
2021-03-07T10:59:57Z,1615114797,2021,11,0,66.4583,66.4583,71.24846,-145.08137,-999.00,-999.00,-999.0,no,no,no,300534061093040,unknown,unknown,unknown,North
2021-03-07T11:10:01Z,1615115402,2021,11,10,66.4653,66.4653,71.24869,-145.08436,-999.00,-999.00,-999.0,no,no,no,300534061093040,unknown,unknown,unknown,North
2021-03-07T11:19:58Z,1615115998,2021,11,20,66.4722,66.4722,71.24892,-145.08735,-999.00,-999.00,-999.0,no,no,no,300534061093040,unknown,unknown,unknown,North
2021-03-07T11:30:02Z,1615116603,2021,11,30,66.4792,66.4792,71.24915,-145.09036,-999.00,-999.00,-999.0,no,no,no,300534061093040,unknown,unknown,unknown,North
2021-03-07T11:39:59Z,1615117199,2021,11,40,66.4861,66.4861,71.24938,-145.09335,-999.00,-999.00,-999.0,no,no,no,300534061093040,unknown,unknown,unknown,North
2021-03-07T11:50:03Z,1615117804,2021,11,50,66.4931,66.4931,71.2496,-145.09632,-999.00,-999.00,-999.0,no,no,no,300534061093040,unknown,unknown,unknown,North
2021-03-07T12:00:00Z,1615118400,2021,12,0,66.5,66.5,71.24981,-145.09916,-999.00,-999.00,-999.0,no,no,no,300534061093040,unknown,unknown,unknown,North
2021-03-07T12:09:56Z,1615118996,2021,12,10,66.5069,66.5069,71.24999,-145.10213,-999.00,-999.00,-999.0,no,no,no,300534061093040,unknown,unknown,unknown,North
2021-03-07T12:20:00Z,1615119601,2021,12,20,66.5139,66.5139,71.25019,-145.10498,-999.00,-999.00,-999.0,no,no,no,300534061093040,unknown,unknown,unknown,North
2021-03-07T12:29:57Z,1615120197,2021,12,30,66.5208,66.5208,71.25037,-145.10781,-999.00,-999.00,-999.0,no,no,no,300534061093040,unknown,unknown,unknown,North
2021-03-07T12:40:01Z,1615120802,2021,12,40,66.5278,66.5278,71.25055,-145.11062,-999.00,-999.00,-999.0,no,no,no,300534061093040,unknown,unknown,unknown,North
2021-03-07T12:49:58Z,1615121398,2021,12,50,66.5347,66.5347,71.25072,-145.11337,-999.00,-999.00,-999.0,no,no,no,300534061093040,unknown,unknown,unknown,North
2021-03-07T13:00:02Z,1615122003,2021,13,0,66.5417,66.5417,71.2509,-145.11612,-999.00,-999.00,-999.0,no,no,no,300534061093040,unknown,unknown,unknown,North
2021-03-07T13:09:59Z,1615122599,2021,13,10,66.5486,66.5486,71.25108,-145.11882,-999.00,-999.00,-999.0,no,no,no,300534061093040,unknown,unknown,unknown,North
2021-03-07T13:20:03Z,1615123204,2021,13,20,66.5556,66.5556,71.25124,-145.12152,-999.00,-999.00,-999.0,no,no,no,300534061093040,unknown,unknown,unknown,North
2021-03-07T13:30:00Z,1615123800,2021,13,30,66.5625,66.5625,71.2514,-145.12422,-999.00,-999.00,-999.0,no,no,no,300534061093040,unknown,unknown,unknown,North
2021-03-07T13:39:56Z,1615124396,2021,13,40,66.5694,66.5694,71.25152,-145.12698,-999.00,-999.00,-999.0,no,no,no,300534061093040,unknown,unknown,unknown,North
2021-03-07T13:50:00Z,1615125001,2021,13,50,66.5764,66.5764,71.25168,-145.12958,-999.00,-999.00,-999.0,no,no,no,300534061093040,unknown,unknown,unknown,North
2021-03-07T13:59:57Z,1615125597,2021,14,0,66.5833,66.5833,71.25189,-145.13218,-999.00,-999.00,-999.0,no,no,no,300534061093040,unknown,unknown,unknown,North
2021-03-07T14:10:01Z,1615126202,2021,14,10,66.5903,66.5903,71.25205,-145.13469,-999.00,-999.00,-999.0,no,no,no,300534061093040,unknown,unknown,unknown,North
2021-03-07T14:19:58Z,1615126798,2021,14,20,66.5972,66.5972,71.25221,-145.13731,-999.00,-999.00,-999.0,no,no,no,300534061093040,unknown,unknown,unknown,North
2021-03-07T14:30:02Z,1615127403,2021,14,30,66.6042,66.6042,71.25237,-145.1399,-999.00,-999.00,-999.0,no,no,no,300534061093040,unknown,unknown,unknown,North
2021-03-07T14:39:59Z,1615127999,2021,14,40,66.6111,66.6111,71.25253,-145.14245,-999.00,-999.00,-999.0,no,no,no,300534061093040,unknown,unknown,unknown,North
2021-03-07T14:50:03Z,1615128604,2021,14,50,66.6181,66.6181,71.25268,-145.14498,-999.00,-999.00,-999.0,no,no,no,300534061093040,unknown,unknown,unknown,North
2021-03-07T15:00:00Z,1615129200,2021,15,0,66.625,66.625,71.25284,-145.14752,-999.00,-999.00,-999.0,no,no,no,300534061093040,unknown,unknown,unknown,North
2021-03-07T15:09:56Z,1615129796,2021,15,10,66.6319,66.6319,71.25299,-145.14999,-999.00,-999.00,-999.0,no,no,no,300534061093040,unknown,unknown,unknown,North
2021-03-07T15:20:00Z,1615130401,2021,15,20,66.6389,66.6389,71.25312,-145.15254,-999.00,-999.00,-999.0,no,no,no,300534061093040,unknown,unknown,unknown,North
2021-03-07T15:29:57Z,1615130997,2021,15,30,66.6458,66.6458,71.25325,-145.15509,-999.00,-999.00,-999.0,no,no,no,300534061093040,unknown,unknown,unknown,North
2021-03-07T15:40:01Z,1615131602,2021,15,40,66.6528,66.6528,71.25341,-145.15762,-999.00,-999.00,-999.0,no,no,no,300534061093040,unknown,unknown,unknown,North
2021-03-07T15:49:58Z,1615132198,2021,15,50,66.6597,66.6597,71.25356,-145.16004,-999.00,-999.00,-999.0,no,no,no,300534061093040,unknown,unknown,unknown,North
2021-03-07T16:00:02Z,1615132803,2021,16,0,66.6667,66.6667,71.2537,-145.16249,-999.00,-999.00,-999.0,no,no,no,300534061093040,unknown,unknown,unknown,North
2021-03-07T16:09:59Z,1615133399,2021,16,10,66.6736,66.6736,71.25386,-145.16494,-999.00,-999.00,-999.0,no,no,no,300534061093040,unknown,unknown,unknown,North
2021-03-07T16:20:03Z,1615134004,2021,16,20,66.6806,66.6806,71.25397,-145.16753,-999.00,-999.00,-999.0,no,no,no,300534061093040,unknown,unknown,unknown,North
2021-03-07T16:30:00Z,1615134600,2021,16,30,66.6875,66.6875,71.25407,-145.17008,-999.00,-999.00,-999.0,no,no,no,300534061093040,unknown,unknown,unknown,North
2021-03-07T16:39:56Z,1615135196,2021,16,40,66.6944,66.6944,71.25418,-145.17257,-999.00,-999.00,-999.0,no,no,no,300534061093040,unknown,unknown,unknown,North
2021-03-07T16:50:00Z,1615135801,2021,16,50,66.7014,66.7014,71.2543,-145.17503,-999.00,-999.00,-999.0,no,no,no,300534061093040,unknown,unknown,unknown,North
2021-03-07T16:59:57Z,1615136397,2021,17,0,66.7083,66.7083,71.25441,-145.17743,-999.00,-999.00,-999.0,no,no,no,300534061093040,unknown,unknown,unknown,North
2021-03-07T17:10:01Z,1615137002,2021,17,10,66.7153,66.7153,71.25453,-145.17982,-999.00,-999.00,-999.0,no,no,no,300534061093040,unknown,unknown,unknown,North
2021-03-07T17:19:58Z,1615137598,2021,17,20,66.7222,66.7222,71.25466,-145.18221,-999.00,-999.00,-999.0,no,no,no,300534061093040,unknown,unknown,unknown,North
2021-03-07T17:30:02Z,1615138203,2021,17,30,66.7292,66.7292,71.25481,-145.18475,-999.00,-999.00,-999.0,no,no,no,300534061093040,unknown,unknown,unknown,North
2021-03-07T17:39:59Z,1615138799,2021,17,40,66.7361,66.7361,71.25491,-145.18705,-999.00,-999.00,-999.0,no,no,no,300534061093040,unknown,unknown,unknown,North
2021-03-07T17:50:03Z,1615139404,2021,17,50,66.7431,66.7431,71.25501,-145.18948,-999.00,-999.00,-999.0,no,no,no,300534061093040,unknown,unknown,unknown,North
2021-03-07T18:00:00Z,1615140000,2021,18,0,66.75,66.75,71.25511,-145.19194,-999.00,-999.00,-999.0,no,no,no,300534061093040,unknown,unknown,unknown,North
2021-03-07T18:09:56Z,1615140596,2021,18,10,66.7569,66.7569,71.2552,-145.19437,-999.00,-999.00,-999.0,no,no,no,300534061093040,unknown,unknown,unknown,North
2021-03-07T18:20:00Z,1615141201,2021,18,20,66.7639,66.7639,71.25529,-145.19678,-999.00,-999.00,-999.0,no,no,no,300534061093040,unknown,unknown,unknown,North
2021-03-07T18:29:57Z,1615141797,2021,18,30,66.7708,66.7708,71.25538,-145.19917,-999.00,-999.00,-999.0,no,no,no,300534061093040,unknown,unknown,unknown,North
2021-03-07T18:40:01Z,1615142402,2021,18,40,66.7778,66.7778,71.25547,-145.20157,-999.00,-999.00,-999.0,no,no,no,300534061093040,unknown,unknown,unknown,North
2021-03-07T18:49:58Z,1615142998,2021,18,50,66.7847,66.7847,71.25556,-145.20396,-999.00,-999.00,-999.0,no,no,no,300534061093040,unknown,unknown,unknown,North
2021-03-07T19:00:02Z,1615143603,2021,19,0,66.7917,66.7917,71.25568,-145.20638,-999.00,-999.00,-999.0,no,no,no,300534061093040,unknown,unknown,unknown,North
2021-03-07T19:09:59Z,1615144199,2021,19,10,66.7986,66.7986,71.25574,-145.20876,-999.00,-999.00,-999.0,no,no,no,300534061093040,unknown,unknown,unknown,North
2021-03-07T19:20:03Z,1615144804,2021,19,20,66.8056,66.8056,71.25585,-145.21116,-999.00,-999.00,-999.0,no,no,no,300534061093040,unknown,unknown,unknown,North
2021-03-07T19:30:00Z,1615145400,2021,19,30,66.8125,66.8125,71.25596,-145.21359,-999.00,-999.00,-999.0,no,no,no,300534061093040,unknown,unknown,unknown,North
2021-03-07T19:39:56Z,1615145996,2021,19,40,66.8194,66.8194,71.25606,-145.21608,-999.00,-999.00,-999.0,no,no,no,300534061093040,unknown,unknown,unknown,North
2021-03-07T19:50:00Z,1615146601,2021,19,50,66.8264,66.8264,71.25616,-145.21857,-999.00,-999.00,-999.0,no,no,no,300534061093040,unknown,unknown,unknown,North
2021-03-07T19:59:57Z,1615147197,2021,20,0,66.8333,66.8333,71.25627,-145.22123,-999.00,-999.00,-999.0,no,no,no,300534061093040,unknown,unknown,unknown,North
2021-03-07T20:10:01Z,1615147802,2021,20,10,66.8403,66.8403,71.25639,-145.22359,-999.00,-999.00,-999.0,no,no,no,300534061093040,unknown,unknown,unknown,North
2021-03-07T20:19:58Z,1615148398,2021,20,20,66.8472,66.8472,71.25651,-145.22604,-999.00,-999.00,-999.0,no,no,no,300534061093040,unknown,unknown,unknown,North
2021-03-07T20:30:02Z,1615149003,2021,20,30,66.8542,66.8542,71.25669,-145.22856,-999.00,-999.00,-999.0,no,no,no,300534061093040,unknown,unknown,unknown,North
2021-03-07T20:39:59Z,1615149599,2021,20,40,66.8611,66.8611,71.25686,-145.23113,-999.00,-999.00,-999.0,no,no,no,300534061093040,unknown,unknown,unknown,North
2021-03-07T20:50:03Z,1615150204,2021,20,50,66.8681,66.8681,71.25702,-145.23365,-999.00,-999.00,-999.0,no,no,no,300534061093040,unknown,unknown,unknown,North
2021-03-07T21:00:00Z,1615150800,2021,21,0,66.875,66.875,71.25718,-145.23626,-999.00,-999.00,-999.0,no,no,no,300534061093040,unknown,unknown,unknown,North
2021-03-07T21:09:56Z,1615151396,2021,21,10,66.8819,66.8819,71.25733,-145.23889,-999.00,-999.00,-999.0,no,no,no,300534061093040,unknown,unknown,unknown,North
2021-03-07T21:20:00Z,1615152001,2021,21,20,66.8889,66.8889,71.2575,-145.24153,-999.00,-999.00,-999.0,no,no,no,300534061093040,unknown,unknown,unknown,North
2021-03-07T21:29:57Z,1615152597,2021,21,30,66.8958,66.8958,71.25769,-145.24414,-999.00,-999.00,-999.0,no,no,no,300534061093040,unknown,unknown,unknown,North
2021-03-07T21:40:01Z,1615153202,2021,21,40,66.9028,66.9028,71.25788,-145.24677,-999.00,-999.00,-999.0,no,no,no,300534061093040,unknown,unknown,unknown,North
2021-03-07T21:49:58Z,1615153798,2021,21,50,66.9097,66.9097,71.25809,-145.2494,-999.00,-999.00,-999.0,no,no,no,300534061093040,unknown,unknown,unknown,North
2021-03-07T22:00:02Z,1615154403,2021,22,0,66.9167,66.9167,71.25832,-145.25201,-999.00,-999.00,-999.0,no,no,no,300534061093040,unknown,unknown,unknown,North
2021-03-07T22:09:59Z,1615154999,2021,22,10,66.9236,66.9236,71.25855,-145.25458,-999.00,-999.00,-999.0,no,no,no,300534061093040,unknown,unknown,unknown,North
2021-03-07T22:20:03Z,1615155604,2021,22,20,66.9306,66.9306,71.25877,-145.25718,-999.00,-999.00,-999.0,no,no,no,300534061093040,unknown,unknown,unknown,North
2021-03-07T22:30:00Z,1615156200,2021,22,30,66.9375,66.9375,71.25899,-145.25986,-999.00,-999.00,-999.0,no,no,no,300534061093040,unknown,unknown,unknown,North
2021-03-07T22:39:56Z,1615156796,2021,22,40,66.9444,66.9444,71.25917,-145.26252,-999.00,-999.00,-999.0,no,no,no,300534061093040,unknown,unknown,unknown,North
2021-03-07T22:50:00Z,1615157401,2021,22,50,66.9514,66.9514,71.25939,-145.26529,-999.00,-999.00,-999.0,no,no,no,300534061093040,unknown,unknown,unknown,North
2021-03-07T22:59:57Z,1615157997,2021,23,0,66.9583,66.9583,71.25962,-145.26822,-999.00,-999.00,-999.0,no,no,no,300534061093040,unknown,unknown,unknown,North